User: anonymous   Login
Location: Unspecified
(0.0000°N, 0.0000°E)
Time: 11:08:25
(UTC+00:00)
Language:

UWE-3 - Orbit

View from above orbital plane
View from above orbital plane
View from above satellite
View from above satellite

Ground track
Ground track

The orbit data is extracted from the following two-line orbital elements,

1 39446U 13066AG  19348.83940345  .00000132  00000-0  24201-4 0  9992
2 39446  97.5870 343.9842 0069587 194.3130 165.6112 14.78464154325739
Epoch (UTC): 14 December 2019 20:08:44
Eccentricity: 0.0069587
inclination: 97.5870°
perigee height: 585 km
apogee height: 683 km
right ascension of ascending node: 343.9842°
argument of perigee: 194.3130°
revolutions per day: 14.78464154
mean anomaly at epoch: 165.6112°
orbit number at epoch: 32573

The dashed part of the orbit path shows where the satellite is in the earth's shadow,  

DLR